CDN876 CYUL-LFPG

Flight info

Callsign CDN876
Flight time N/A
Altitude 35000
Route CYUL5 KIPAD DCT ATENE Q907 MIILS N199B PORTI/M083F350 DCT 4750N DCT 4940N DCT 5130N DCT 5220N DCT LIMRI/N0477F350 DCT XETBO/N0484F370 DCT LESLU DCT ANNET UM25 INGOR/N0468F280 UM25 LUKIP
Aircraft B77W/H-SDE1E2E3FGHIJ2J3J4J5M1RWXY/LB1D1

Departure

Time N/A
Airport Montreal / Pierre Elliott Trudeau International Airport (CYUL)

Arrival

Time 2026-05-03 22:36
Airport Charles de Gaulle International Airport (LFPG)
Time Latitude Longitude Altitude Speed Heading
2026-05-03 20:15 51.78676 -23.08058 37319 ft 480 kts 80°
2026-05-03 20:15 51.79555 -22.97360 37315 ft 480 kts 80°
2026-05-03 20:16 51.80418 -22.86740 37309 ft 480 kts 80°
2026-05-03 20:16 51.81277 -22.76039 37311 ft 480 kts 80°
2026-05-03 20:17 51.82126 -22.65340 37311 ft 480 kts 80°
2026-05-03 20:17 51.82966 -22.54631 37311 ft 479 kts 80°
2026-05-03 20:18 51.83796 -22.43925 37307 ft 479 kts 80°
2026-05-03 20:18 51.84615 -22.33223 37307 ft 479 kts 81°
2026-05-03 20:19 51.85420 -22.22578 37306 ft 479 kts 81°
2026-05-03 20:19 51.86220 -22.11868 37305 ft 479 kts 81°
2026-05-03 20:20 51.87010 -22.01157 37301 ft 479 kts 81°
2026-05-03 20:20 51.87786 -21.90508 37297 ft 479 kts 81°
2026-05-03 20:21 51.88555 -21.79805 37298 ft 478 kts 81°
2026-05-03 20:21 51.89315 -21.69095 37294 ft 478 kts 81°
2026-05-03 20:22 51.90060 -21.58459 37292 ft 478 kts 81°
2026-05-03 20:22 51.90800 -21.47761 37292 ft 478 kts 81°
2026-05-03 20:23 51.91529 -21.37061 37292 ft 478 kts 81°
2026-05-03 20:23 51.92249 -21.26366 37286 ft 477 kts 81°
2026-05-03 20:24 51.92959 -21.15661 37284 ft 477 kts 81°
2026-05-03 20:24 51.93658 -21.04970 37284 ft 477 kts 81°
2026-05-03 20:25 51.94348 -20.94266 37280 ft 477 kts 81°
2026-05-03 20:25 51.95028 -20.83573 37276 ft 477 kts 81°
2026-05-03 20:26 51.95698 -20.72872 37269 ft 477 kts 81°
2026-05-03 20:26 51.96354 -20.62239 37275 ft 476 kts 81°
2026-05-03 20:27 51.97004 -20.51549 37275 ft 476 kts 81°
2026-05-03 20:27 51.97644 -20.40862 37276 ft 476 kts 81°
2026-05-03 20:28 51.98274 -20.30178 37272 ft 476 kts 81°
2026-05-03 20:28 51.98894 -20.19493 37271 ft 475 kts 82°
2026-05-03 20:29 51.99505 -20.08809 37274 ft 475 kts 82°
2026-05-03 20:29 52.00068 -19.98191 37270 ft 475 kts 84°
2026-05-03 20:30 52.00324 -19.87453 37274 ft 476 kts 85°
2026-05-03 20:30 52.00496 -19.76726 37271 ft 475 kts 85°
2026-05-03 20:31 52.00672 -19.65975 37266 ft 475 kts 85°
2026-05-03 20:31 52.00857 -19.55250 37259 ft 475 kts 85°
2026-05-03 20:32 52.01039 -19.44600 37260 ft 474 kts 85°
2026-05-03 20:32 52.01212 -19.33900 37258 ft 474 kts 85°
2026-05-03 20:33 52.01374 -19.23182 37258 ft 473 kts 85°
2026-05-03 20:33 52.01525 -19.12558 37255 ft 473 kts 85°
2026-05-03 20:34 52.01667 -19.01887 37255 ft 472 kts 85°
2026-05-03 20:34 52.01800 -18.91226 37255 ft 472 kts 85°
2026-05-03 20:35 52.01922 -18.80571 37248 ft 472 kts 85°
2026-05-03 20:35 52.02035 -18.69923 37243 ft 471 kts 86°
2026-05-03 20:36 52.02138 -18.59275 37252 ft 471 kts 86°
2026-05-03 20:36 52.02232 -18.48647 37250 ft 471 kts 86°
2026-05-03 20:37 52.02316 -18.38058 37237 ft 471 kts 86°
2026-05-03 20:37 52.02390 -18.27430 37236 ft 470 kts 86°
2026-05-03 20:38 52.02455 -18.16807 37234 ft 470 kts 86°
2026-05-03 20:38 52.02510 -18.06250 37244 ft 470 kts 86°
2026-05-03 20:39 52.02556 -17.95629 37242 ft 470 kts 86°
2026-05-03 20:39 52.02592 -17.84994 37245 ft 469 kts 86°
2026-05-03 20:40 52.02619 -17.74456 37232 ft 469 kts 86°
2026-05-03 20:40 52.02636 -17.63850 37230 ft 469 kts 86°
2026-05-03 20:41 52.02643 -17.53272 37224 ft 469 kts 86°
2026-05-03 20:41 52.02641 -17.42682 37229 ft 468 kts 86°
2026-05-03 20:42 52.02630 -17.32096 37225 ft 468 kts 86°
2026-05-03 20:42 52.02609 -17.21515 37224 ft 468 kts 86°
2026-05-03 20:43 52.02579 -17.11014 37222 ft 468 kts 86°
2026-05-03 20:43 52.02540 -17.00449 37219 ft 468 kts 86°
2026-05-03 20:44 52.02491 -16.89883 37220 ft 467 kts 86°
2026-05-03 20:44 52.02433 -16.79375 37215 ft 467 kts 86°
2026-05-03 20:45 52.02365 -16.68809 37214 ft 467 kts 87°
2026-05-03 20:45 52.02301 -16.60030 37210 ft 467 kts 86°
2026-05-03 20:46 52.02216 -16.49482 37209 ft 467 kts 87°
2026-05-03 20:46 52.02122 -16.38941 37209 ft 467 kts 87°
2026-05-03 20:47 52.02018 -16.28395 37205 ft 467 kts 87°
2026-05-03 20:47 52.01905 -16.17916 37199 ft 467 kts 87°
2026-05-03 20:48 52.01783 -16.07373 37192 ft 467 kts 87°
2026-05-03 20:48 52.01651 -15.96834 37194 ft 467 kts 87°
2026-05-03 20:49 52.01509 -15.86303 37188 ft 466 kts 87°
2026-05-03 20:49 52.01359 -15.75766 37187 ft 466 kts 87°
2026-05-03 20:50 52.01199 -15.65241 37184 ft 466 kts 88°
2026-05-03 20:50 52.01029 -15.54718 37186 ft 466 kts 88°
2026-05-03 20:51 52.00851 -15.44193 37180 ft 466 kts 88°
2026-05-03 20:51 52.00663 -15.33677 37176 ft 466 kts 88°
2026-05-03 20:52 52.00467 -15.23221 37172 ft 466 kts 88°
2026-05-03 20:52 52.00261 -15.12711 37167 ft 466 kts 88°
2026-05-03 20:53 52.00047 -15.02196 37164 ft 466 kts 88°
2026-05-03 20:53 51.99943 -14.91691 37170 ft 465 kts 86°
2026-05-03 20:54 52.00019 -14.81189 37172 ft 465 kts 85°
2026-05-03 20:54 52.00095 -14.65504 37158 ft 466 kts 86°
2026-05-03 20:55 52.00106 -14.54963 37158 ft 466 kts 86°
2026-05-03 20:55 52.00103 -14.44427 37153 ft 467 kts 86°
2026-05-03 20:56 52.00093 -14.33889 37154 ft 467 kts 86°
2026-05-03 20:56 52.00074 -14.23405 37150 ft 468 kts 86°
2026-05-03 20:57 52.00048 -14.12843 37143 ft 468 kts 86°
2026-05-03 20:57 51.99955 -14.02274 37143 ft 470 kts 90°
2026-05-03 20:58 51.98953 -13.91754 37144 ft 474 kts 99°
2026-05-03 20:58 51.97456 -13.81320 37138 ft 475 kts 99°
2026-05-03 20:59 51.95948 -13.70887 37119 ft 475 kts 99°
2026-05-03 20:59 51.94469 -13.60523 37124 ft 475 kts 99°
2026-05-03 21:00 51.93226 -13.51775 37130 ft 475 kts 99°
2026-05-03 21:00 51.91496 -13.39657 37131 ft 475 kts 99°
2026-05-03 21:01 51.89996 -13.29235 37112 ft 475 kts 99°
2026-05-03 21:01 51.88485 -13.18815 37117 ft 475 kts 100°
2026-05-03 21:02 51.86972 -13.08454 37110 ft 475 kts 100°
2026-05-03 21:02 51.85443 -12.98044 37101 ft 475 kts 100°
2026-05-03 21:03 51.83899 -12.87614 37099 ft 476 kts 100°
2026-05-03 21:03 51.82351 -12.77218 37096 ft 476 kts 100°
2026-05-03 21:04 51.80802 -12.66887 37090 ft 476 kts 100°
2026-05-03 21:04 51.79233 -12.56497 37081 ft 476 kts 100°
2026-05-03 21:05 51.77655 -12.46102 37075 ft 476 kts 101°
2026-05-03 21:05 51.76068 -12.35721 37073 ft 476 kts 101°
2026-05-03 21:06 51.74481 -12.25412 37067 ft 476 kts 101°
2026-05-03 21:06 51.72875 -12.15038 37061 ft 476 kts 101°
2026-05-03 21:07 51.71260 -12.04676 37058 ft 476 kts 101°
2026-05-03 21:07 51.69633 -11.94301 37050 ft 477 kts 101°
2026-05-03 21:08 51.68004 -11.83978 37048 ft 477 kts 101°
2026-05-03 21:08 51.66360 -11.73633 37041 ft 477 kts 101°
2026-05-03 21:09 51.64708 -11.63289 37036 ft 477 kts 101°
2026-05-03 21:09 51.63044 -11.52946 37032 ft 477 kts 102°
2026-05-03 21:10 51.61369 -11.42595 37030 ft 477 kts 102°
2026-05-03 21:10 51.59685 -11.32255 37028 ft 478 kts 102°
2026-05-03 21:11 51.58004 -11.21994 37023 ft 478 kts 102°
2026-05-03 21:11 51.56301 -11.11658 37012 ft 478 kts 102°
2026-05-03 21:12 51.54590 -11.01337 37009 ft 478 kts 102°
2026-05-03 21:12 51.52868 -10.91016 37007 ft 478 kts 102°
2026-05-03 21:13 51.51140 -10.80714 36998 ft 477 kts 102°
2026-05-03 21:13 51.49408 -10.70461 36991 ft 477 kts 102°
2026-05-03 21:14 51.47660 -10.60169 36990 ft 478 kts 103°
2026-05-03 21:14 51.45904 -10.49887 36984 ft 478 kts 103°
2026-05-03 21:15 51.44139 -10.39611 36999 ft 478 kts 103°
2026-05-03 21:15 51.42373 -10.29394 36982 ft 479 kts 103°
2026-05-03 21:16 51.40586 -10.19114 36978 ft 479 kts 103°
2026-05-03 21:16 51.38787 -10.08826 36978 ft 480 kts 104°
2026-05-03 21:17 51.37282 -10.00266 36974 ft 481 kts 104°
2026-05-03 21:17 51.35151 -9.88209 36973 ft 481 kts 104°
2026-05-03 21:18 51.33316 -9.77896 36971 ft 482 kts 104°
2026-05-03 21:18 51.31482 -9.67648 36971 ft 482 kts 104°
2026-05-03 21:19 51.29623 -9.57317 36966 ft 483 kts 104°
2026-05-03 21:19 51.27760 -9.47021 36965 ft 483 kts 104°
2026-05-03 21:20 51.25885 -9.36718 36969 ft 483 kts 105°
2026-05-03 21:20 51.24002 -9.26430 36969 ft 483 kts 105°
2026-05-03 21:21 51.22108 -9.16135 36973 ft 483 kts 105°
2026-05-03 21:21 51.20203 -9.05845 36966 ft 483 kts 105°
2026-05-03 21:22 51.18301 -8.95622 36968 ft 484 kts 105°
2026-05-03 21:22 51.16376 -8.85338 36965 ft 484 kts 105°
2026-05-03 21:23 51.14443 -8.75064 36969 ft 484 kts 106°
2026-05-03 21:23 51.12502 -8.64802 36968 ft 484 kts 106°
2026-05-03 21:24 51.10549 -8.54532 36969 ft 484 kts 106°
2026-05-03 21:24 51.08598 -8.44332 36965 ft 484 kts 106°
2026-05-03 21:25 51.06629 -8.34093 36968 ft 484 kts 106°
2026-05-03 21:25 51.04651 -8.23859 36960 ft 484 kts 106°
2026-05-03 21:26 51.02680 -8.13712 36960 ft 483 kts 107°
2026-05-03 21:26 51.00674 -8.03442 36962 ft 483 kts 107°
2026-05-03 21:27 50.98135 -7.93657 36957 ft 483 kts 116°
2026-05-03 21:27 50.95112 -7.84138 36960 ft 483 kts 116°
2026-05-03 21:28 50.92072 -7.74624 36954 ft 483 kts 116°
2026-05-03 21:28 50.89052 -7.65098 36952 ft 484 kts 116°
2026-05-03 21:29 50.86546 -7.57173 36954 ft 484 kts 116°
2026-05-03 21:29 50.83033 -7.46089 36952 ft 484 kts 116°
2026-05-03 21:30 50.80493 -7.38107 36948 ft 485 kts 117°
2026-05-03 21:30 50.77470 -7.28646 36946 ft 485 kts 117°
2026-05-03 21:31 50.74412 -7.19113 36942 ft 486 kts 117°
2026-05-03 21:31 50.71346 -7.09595 36947 ft 486 kts 117°
2026-05-03 21:32 50.68273 -7.00089 36941 ft 486 kts 117°
2026-05-03 21:32 50.65192 -6.90595 36940 ft 487 kts 117°
2026-05-03 21:33 50.62119 -6.81162 36936 ft 487 kts 118°
2026-05-03 21:33 50.59014 -6.71667 36937 ft 487 kts 118°
2026-05-03 21:34 50.55900 -6.62179 36935 ft 487 kts 118°
2026-05-03 21:34 50.52781 -6.52713 36937 ft 487 kts 118°
2026-05-03 21:35 50.49657 -6.43268 36938 ft 487 kts 118°
2026-05-03 21:35 50.46526 -6.33835 36939 ft 487 kts 118°
2026-05-03 21:36 50.43402 -6.24460 36937 ft 487 kts 118°
2026-05-03 21:36 50.40253 -6.15046 36937 ft 487 kts 118°
2026-05-03 21:37 50.37095 -6.05638 36938 ft 487 kts 118°
2026-05-03 21:37 50.33930 -5.96248 36933 ft 487 kts 119°
2026-05-03 21:38 50.30779 -5.86931 36934 ft 487 kts 119°
2026-05-03 21:38 50.27600 -5.77566 36938 ft 487 kts 119°
2026-05-03 21:39 50.24423 -5.68241 36935 ft 487 kts 119°
2026-05-03 21:39 50.21227 -5.58898 36927 ft 487 kts 119°
2026-05-03 21:40 50.18028 -5.49577 36920 ft 487 kts 120°
2026-05-03 21:40 50.14817 -5.40255 36913 ft 487 kts 120°
2026-05-03 21:41 50.11598 -5.30948 36908 ft 487 kts 120°
2026-05-03 21:41 50.08394 -5.21717 36911 ft 487 kts 120°
2026-05-03 21:42 50.05153 -5.12409 36911 ft 487 kts 120°
2026-05-03 21:42 50.01911 -5.03134 36916 ft 487 kts 120°
2026-05-03 21:43 49.98686 -4.93944 36922 ft 487 kts 120°
2026-05-03 21:43 49.95432 -4.84700 36929 ft 487 kts 120°
2026-05-03 21:44 49.92194 -4.75537 36931 ft 487 kts 120°
2026-05-03 21:44 49.88932 -4.66339 36948 ft 486 kts 121°
2026-05-03 21:45 49.85663 -4.57154 36928 ft 486 kts 121°
2026-05-03 21:45 49.82380 -4.47962 36930 ft 486 kts 121°
2026-05-03 21:46 49.79097 -4.38801 36924 ft 486 kts 121°
2026-05-03 21:46 49.75809 -4.29659 36939 ft 486 kts 121°
2026-05-03 21:47 49.72514 -4.20531 36938 ft 486 kts 121°
2026-05-03 21:47 49.69232 -4.11463 36941 ft 486 kts 121°
2026-05-03 21:48 49.66193 -4.02140 36936 ft 489 kts 112°
2026-05-03 21:48 49.64493 -3.91952 36943 ft 492 kts 99°
2026-05-03 21:49 49.63838 -3.81438 36948 ft 493 kts 97°
2026-05-03 21:49 49.63263 -3.70873 36949 ft 494 kts 97°
2026-05-03 21:50 49.62642 -3.60374 36947 ft 494 kts 97°
2026-05-03 21:50 49.61974 -3.49804 36949 ft 494 kts 98°
2026-05-03 21:51 49.61287 -3.39248 36946 ft 495 kts 98°
2026-05-03 21:51 49.60592 -3.28687 36945 ft 495 kts 98°
2026-05-03 21:52 49.59888 -3.18121 36949 ft 495 kts 98°
2026-05-03 21:52 49.59175 -3.07552 36950 ft 495 kts 98°
2026-05-03 21:53 49.58454 -2.96993 36953 ft 496 kts 98°
2026-05-03 21:53 49.57725 -2.86486 36954 ft 496 kts 98°
2026-05-03 21:54 49.56984 -2.75935 36963 ft 496 kts 99°
2026-05-03 21:54 49.56232 -2.65361 36964 ft 496 kts 99°
2026-05-03 21:55 49.55471 -2.54811 36965 ft 496 kts 99°
2026-05-03 21:55 49.54701 -2.44260 36961 ft 496 kts 99°
2026-05-03 21:56 49.53920 -2.33711 36954 ft 496 kts 99°
2026-05-03 21:56 49.53129 -2.23148 36952 ft 496 kts 99°
2026-05-03 21:57 49.52335 -2.12668 36951 ft 496 kts 99°
2026-05-03 21:57 49.51525 -2.02118 36954 ft 496 kts 99°
2026-05-03 21:58 49.50705 -1.91568 36955 ft 496 kts 100°
2026-05-03 21:58 49.49876 -1.81019 36956 ft 496 kts 100°
2026-05-03 21:59 49.49038 -1.70463 36953 ft 497 kts 100°
2026-05-03 21:59 49.48187 -1.59916 36958 ft 497 kts 100°
2026-05-03 22:00 49.47322 -1.49367 36961 ft 497 kts 101°
2026-05-03 22:00 49.46453 -1.38885 36957 ft 497 kts 101°
2026-05-03 22:01 49.45570 -1.28343 36960 ft 497 kts 101°
2026-05-03 22:01 49.44679 -1.17807 36949 ft 497 kts 101°
2026-05-03 22:02 49.43779 -1.07285 36944 ft 496 kts 101°
2026-05-03 22:02 49.42870 -0.96773 36947 ft 496 kts 101°
2026-05-03 22:03 49.41951 -0.86263 36946 ft 496 kts 101°
2026-05-03 22:03 49.41029 -0.75824 36947 ft 496 kts 101°
2026-05-03 22:04 49.40091 -0.65319 36950 ft 496 kts 102°
2026-05-03 22:04 49.39144 -0.54828 36960 ft 496 kts 102°
2026-05-03 22:05 49.38186 -0.44323 36955 ft 496 kts 102°
2026-05-03 22:05 49.37226 -0.33883 36956 ft 497 kts 102°
2026-05-03 22:06 49.36247 -0.23305 36081 ft 508 kts 102°
2026-05-03 22:06 49.35846 -0.17912 35364 ft 504 kts 101°
2026-05-03 22:06 49.35527 -0.12546 34543 ft 505 kts 101°
2026-05-03 22:07 49.35235 -0.07227 33640 ft 507 kts 101°
2026-05-03 22:07 49.34932 -0.01833 32649 ft 508 kts 101°
2026-05-03 22:07 49.34613 0.03560 31817 ft 506 kts 102°
2026-05-03 22:07 49.34284 0.08898 31256 ft 498 kts 102°
2026-05-03 22:08 49.33950 0.14160 30672 ft 493 kts 102°
2026-05-03 22:08 49.33613 0.19361 30113 ft 487 kts 102°
2026-05-03 22:08 49.33275 0.24505 29475 ft 483 kts 102°
2026-05-03 22:08 49.32939 0.29593 28891 ft 477 kts 102°
2026-05-03 22:09 49.32606 0.34616 28337 ft 471 kts 102°
2026-05-03 22:09 49.32275 0.39588 27778 ft 465 kts 101°
2026-05-03 22:09 49.31946 0.44502 27233 ft 460 kts 101°
2026-05-03 22:10 49.31419 0.54145 26138 ft 455 kts 97°
2026-05-03 22:10 49.31350 0.58988 25599 ft 452 kts 95°
2026-05-03 22:10 49.31334 0.63792 25074 ft 449 kts 95°
2026-05-03 22:10 49.31325 0.68564 24545 ft 446 kts 95°
2026-05-03 22:11 49.31303 0.73295 24013 ft 443 kts 95°
2026-05-03 22:11 49.31265 0.78002 23488 ft 440 kts 95°
2026-05-03 22:11 49.31214 0.82678 22873 ft 437 kts 95°
2026-05-03 22:11 49.31155 0.87322 22312 ft 434 kts 95°
2026-05-03 22:12 49.31093 0.91885 21791 ft 429 kts 95°
2026-05-03 22:12 49.31027 0.96438 21265 ft 426 kts 95°
2026-05-03 22:12 49.30960 1.00966 20748 ft 422 kts 95°
2026-05-03 22:12 49.30916 1.03937 20405 ft 420 kts 95°
2026-05-03 22:13 49.30847 1.08403 19897 ft 417 kts 95°
2026-05-03 22:13 49.30777 1.12838 19382 ft 415 kts 95°
2026-05-03 22:13 49.30707 1.17243 18876 ft 412 kts 95°
2026-05-03 22:13 49.30635 1.21627 18369 ft 410 kts 95°
2026-05-03 22:14 49.30562 1.25997 17803 ft 408 kts 95°
2026-05-03 22:14 49.30486 1.30336 17246 ft 406 kts 95°
2026-05-03 22:14 49.30413 1.34649 16724 ft 403 kts 95°
2026-05-03 22:14 49.30338 1.38934 16208 ft 400 kts 95°
2026-05-03 22:15 49.30261 1.43125 15711 ft 397 kts 95°
2026-05-03 22:15 49.30184 1.47331 15210 ft 395 kts 95°
2026-05-03 22:15 49.30105 1.51532 14713 ft 393 kts 95°
2026-05-03 22:15 49.30025 1.55703 14215 ft 391 kts 95°
2026-05-03 22:16 49.29916 1.59857 13707 ft 388 kts 96°
2026-05-03 22:16 49.29729 1.63970 13156 ft 386 kts 97°
2026-05-03 22:16 49.29527 1.68067 12640 ft 384 kts 97°
2026-05-03 22:16 49.29334 1.72138 12125 ft 382 kts 97°
2026-05-03 22:17 49.29152 1.76154 11911 ft 371 kts 97°
2026-05-03 22:17 49.28980 1.80039 11711 ft 361 kts 97°
2026-05-03 22:17 49.28808 1.83838 11523 ft 355 kts 97°
2026-05-03 22:17 49.28635 1.87616 11351 ft 358 kts 97°
2026-05-03 22:18 49.28456 1.91443 11173 ft 362 kts 97°
2026-05-03 22:18 49.28276 1.95289 11044 ft 360 kts 97°
2026-05-03 22:18 49.28104 1.99022 10984 ft 349 kts 97°
2026-05-03 22:18 49.27935 2.02655 10957 ft 334 kts 97°
2026-05-03 22:19 49.27773 2.06134 10946 ft 320 kts 97°
2026-05-03 22:19 49.27616 2.09450 10940 ft 305 kts 97°
2026-05-03 22:19 49.27465 2.12622 10938 ft 292 kts 98°
2026-05-03 22:19 49.27415 2.13655 10948 ft 290 kts 98°
2026-05-03 22:20 49.27262 2.16769 10957 ft 294 kts 98°
2026-05-03 22:20 49.27110 2.19870 10957 ft 293 kts 98°
2026-05-03 22:20 49.26957 2.22972 10955 ft 292 kts 98°
2026-05-03 22:20 49.26805 2.26068 10957 ft 291 kts 98°
2026-05-03 22:21 49.26654 2.29149 10953 ft 290 kts 98°
2026-05-03 22:21 49.26501 2.32229 10957 ft 289 kts 98°
2026-05-03 22:21 49.26350 2.35257 10863 ft 288 kts 98°
2026-05-03 22:21 49.26195 2.38321 10487 ft 290 kts 98°
2026-05-03 22:22 49.26037 2.41442 10016 ft 296 kts 98°
2026-05-03 22:22 49.25878 2.44600 9594 ft 299 kts 98°
2026-05-03 22:22 49.25715 2.47789 9127 ft 302 kts 98°
2026-05-03 22:22 49.25550 2.51006 8710 ft 303 kts 98°
2026-05-03 22:23 49.25279 2.54200 8368 ft 300 kts 103°
2026-05-03 22:23 49.24900 2.57290 8065 ft 297 kts 104°
2026-05-03 22:23 49.24508 2.60385 8012 ft 289 kts 104°
2026-05-03 22:23 49.24133 2.63425 7969 ft 293 kts 104°
2026-05-03 22:24 49.23760 2.66519 7947 ft 299 kts 104°
2026-05-03 22:24 49.23391 2.69621 7821 ft 298 kts 104°
2026-05-03 22:24 49.23012 2.72720 7603 ft 294 kts 105°
2026-05-03 22:24 49.22598 2.75735 7464 ft 285 kts 105°
2026-05-03 22:25 49.22200 2.78661 7321 ft 277 kts 105°
2026-05-03 22:25 49.21817 2.81506 7140 ft 271 kts 105°
2026-05-03 22:25 49.21442 2.84314 6890 ft 268 kts 105°
2026-05-03 22:25 49.21072 2.87085 6693 ft 263 kts 105°
2026-05-03 22:26 49.20710 2.89812 6464 ft 259 kts 105°
2026-05-03 22:26 49.20359 2.92479 6340 ft 253 kts 105°
2026-05-03 22:26 49.20013 2.95115 6105 ft 254 kts 105°
2026-05-03 22:26 49.19661 2.97783 5865 ft 257 kts 105°
2026-05-03 22:27 49.19301 3.00474 5620 ft 259 kts 105°
2026-05-03 22:27 49.18804 3.03064 5321 ft 250 kts 124°
2026-05-03 22:27 49.17651 3.04918 5104 ft 236 kts 155°
2026-05-03 22:27 49.16145 3.05562 5040 ft 225 kts 178°
2026-05-03 22:28 49.14573 3.05668 5008 ft 227 kts 181°
2026-05-03 22:28 49.12988 3.05694 5014 ft 229 kts 181°
2026-05-03 22:28 49.11392 3.05707 5004 ft 228 kts 182°
2026-05-03 22:28 49.09808 3.05716 4996 ft 227 kts 182°
2026-05-03 22:29 49.08246 3.05666 4977 ft 219 kts 191°
2026-05-03 22:29 49.06907 3.04704 4991 ft 216 kts 224°
2026-05-03 22:29 49.06141 3.02773 5043 ft 215 kts 247°
2026-05-03 22:29 49.05692 3.00547 5009 ft 223 kts 251°
2026-05-03 22:30 49.05278 2.98253 5007 ft 225 kts 251°
2026-05-03 22:30 49.04902 2.95990 4990 ft 221 kts 256°
2026-05-03 22:30 49.04687 2.93681 4999 ft 220 kts 260°
2026-05-03 22:30 49.04544 2.91343 4883 ft 226 kts 262°
2026-05-03 22:31 49.04415 2.88933 4582 ft 229 kts 262°
2026-05-03 22:31 49.04289 2.86523 4274 ft 227 kts 262°
2026-05-03 22:31 49.04163 2.84134 3971 ft 225 kts 262°
2026-05-03 22:31 49.04036 2.81757 3673 ft 223 kts 262°
2026-05-03 22:32 49.03911 2.79411 3402 ft 219 kts 262°
2026-05-03 22:32 49.03790 2.77138 3107 ft 212 kts 262°
2026-05-03 22:32 49.03673 2.74962 2799 ft 204 kts 263°
2026-05-03 22:32 49.03564 2.72884 2541 ft 189 kts 262°
2026-05-03 22:33 49.03461 2.70966 2299 ft 177 kts 262°
2026-05-03 22:33 49.03361 2.69119 2066 ft 169 kts 262°
2026-05-03 22:33 49.03269 2.67393 1863 ft 158 kts 262°
2026-05-03 22:33 49.03182 2.65774 1644 ft 147 kts 263°
2026-05-03 22:34 49.03101 2.64250 1470 ft 141 kts 263°
2026-05-03 22:34 49.03022 2.62781 1285 ft 137 kts 263°
2026-05-03 22:34 49.02945 2.61339 1092 ft 140 kts 263°
2026-05-03 22:34 49.02865 2.59840 924 ft 143 kts 263°
2026-05-03 22:35 49.02786 2.58323 711 ft 142 kts 264°
2026-05-03 22:35 49.02706 2.56836 514 ft 139 kts 262°
2026-05-03 22:35 49.02625 2.55375 363 ft 135 kts 266°
2026-05-03 22:35 49.02572 2.54213 359 ft 78 kts 265°
2026-05-03 22:36 49.02537 2.53703 368 ft 31 kts 266°
2026-05-03 22:36 49.02494 2.53460 364 ft 21 kts 245°
2026-05-03 22:36 49.02426 2.53292 366 ft 16 kts 237°
2026-05-03 22:36 49.02366 2.53154 366 ft 10 kts 236°
2026-05-03 22:37 49.02333 2.53084 367 ft 9 kts 230°
2026-05-03 22:37 49.02236 2.53008 366 ft 18 kts 186°
2026-05-03 22:37 49.02116 2.53012 365 ft 18 kts 176°
2026-05-03 22:37 49.01993 2.53028 361 ft 15 kts 175°
2026-05-03 22:38 49.01913 2.53038 367 ft 11 kts 175°
2026-05-03 22:38 49.01852 2.53094 366 ft 11 kts 109°
2026-05-03 22:38 49.01851 2.53216 360 ft 12 kts 87°
2026-05-03 22:38 49.01858 2.53352 362 ft 14 kts 85°
2026-05-03 22:39 49.01868 2.53541 363 ft 26 kts 85°
2026-05-03 22:39 49.01882 2.53792 362 ft 15 kts 85°
2026-05-03 22:39 49.01889 2.53932 367 ft 11 kts 83°
2026-05-03 22:39 49.01896 2.54003 363 ft 6 kts 82°
2026-05-03 22:40 49.01899 2.54071 365 ft 7 kts 99°
2026-05-03 22:40 49.01859 2.54137 367 ft 12 kts 145°
2026-05-03 22:40 49.01820 2.54264 365 ft 16 kts 92°
2026-05-03 22:40 49.01826 2.54456 364 ft 20 kts 86°
2026-05-03 22:41 49.01838 2.54678 360 ft 22 kts 85°
2026-05-03 22:41 49.01850 2.54885 363 ft 18 kts 85°
2026-05-03 22:41 49.01859 2.55044 364 ft 13 kts 86°
2026-05-03 22:41 49.01825 2.55126 364 ft 10 kts 153°
2026-05-03 22:42 49.01732 2.55141 365 ft 17 kts 178°
2026-05-03 22:42 49.01616 2.55153 366 ft 17 kts 173°
2026-05-03 22:42 49.01501 2.55173 365 ft 17 kts 173°
2026-05-03 22:42 49.01387 2.55204 367 ft 17 kts 165°
2026-05-03 22:43 49.01281 2.55199 364 ft 15 kts 198°
2026-05-03 22:43 49.01179 2.55163 363 ft 15 kts 179°
2026-05-03 22:43 49.01077 2.55196 367 ft 15 kts 163°
2026-05-03 22:43 49.00976 2.55241 367 ft 16 kts 163°
2026-05-03 22:44 49.00868 2.55290 367 ft 17 kts 163°
2026-05-03 22:44 49.00750 2.55340 365 ft 18 kts 165°
2026-05-03 22:44 49.00623 2.55394 368 ft 20 kts 163°
2026-05-03 22:44 49.00490 2.55453 363 ft 21 kts 165°
2026-05-03 22:45 49.00355 2.55512 363 ft 20 kts 163°
2026-05-03 22:45 49.00227 2.55568 363 ft 19 kts 164°
2026-05-03 22:45 49.00103 2.55623 366 ft 19 kts 163°
2026-05-03 22:45 48.99987 2.55675 360 ft 15 kts 161°
2026-05-03 22:46 48.99920 2.55790 367 ft 15 kts 110°
2026-05-03 22:46 48.99893 2.55951 359 ft 17 kts 98°
2026-05-03 22:46 48.99897 2.56165 359 ft 22 kts 84°
2026-05-03 22:46 48.99908 2.56378 360 ft 20 kts 85°
2026-05-03 22:47 48.99919 2.56587 365 ft 20 kts 85°
2026-05-03 22:47 48.99931 2.56798 365 ft 20 kts 86°
2026-05-03 22:47 48.99942 2.57010 363 ft 20 kts 85°
2026-05-03 22:47 48.99954 2.57222 361 ft 20 kts 84°
2026-05-03 22:48 48.99966 2.57433 359 ft 20 kts 85°
2026-05-03 22:48 48.99974 2.57610 367 ft 11 kts 85°
2026-05-03 22:48 48.99993 2.57718 368 ft 10 kts 51°
2026-05-03 22:48 49.00058 2.57733 360 ft 11 kts 357°
2026-05-03 22:49 49.00129 2.57725 365 ft 4 kts 355°
2026-05-03 22:49 49.00130 2.57725 365 ft 0 kts 355°